EW7285 Weather Reports


time (UTC)temp
C
wind
direction
speed
KPH
gust
KPH
rain 1hr
cm
rain 24hr
cm
rain mn
cm
humidity
%
barometer
mb
20260506013014 -1 138 0.0 0.0 0.00 0.00 0.00 92 1010.6
20260506011525 -1 138 0.0 0.0 0.00 0.00 0.00 92 1010.5
20260506010005 -1 138 0.0 0.0 0.00 0.00 0.00 92 1010.3
20260506004511 -1 138 0.0 0.0 0.00 0.00 0.00 92 1010.2
20260506003002 -1 138 0.0 0.0 0.00 0.00 0.00 92 1010.1
20260506001601 -1 138 0.0 0.0 0.00 0.00 0.00 91 1010.0
20260506000100 -1 138 0.0 0.0 0.00 0.00 0.00 91 1009.9
20260505234554 0 138 0.0 0.0 0.00 0.00 0.00 91 1009.8
20260505233051 0 138 0.0 0.0 0.00 0.00 0.00 91 1009.6
20260505231549 0 138 0.0 0.0 0.00 0.00 0.00 91 1009.6
20260505230046 0 138 0.0 3.2 0.00 0.00 0.00 90 1009.4
20260505224542 0 138 0.0 3.2 0.00 0.00 0.00 90 1009.5
20260505223039 1 138 0.0 0.0 0.00 0.00 0.00 90 1009.4
20260505221541 1 138 0.0 0.0 0.00 0.00 0.00 89 1009.2
20260505220051 1 138 0.0 0.0 0.00 0.00 0.00 88 1009.2
20260505214533 1 138 0.0 3.2 0.00 0.00 0.00 87 1009.2
20260505213031 2 138 0.0 0.0 0.00 0.00 0.00 86 1009.0
20260505211524 3 138 0.0 0.0 0.00 0.00 0.00 85 1008.9
20260505210020 3 161 1.6 8.0 0.00 0.00 0.00 84 1008.9
20260505204519 3 161 0.0 0.0 0.00 0.00 0.00 83 1008.7
20260505203016 4 161 0.0 0.0 0.00 0.00 0.00 82 1008.5
20260505201517 4 161 0.0 0.0 0.00 0.00 0.00 80 1008.3
20260505200010 5 113 0.0 0.0 0.00 0.00 0.00 77 1008.3
20260505194518 6 113 0.0 3.2 0.00 0.00 0.00 75 1008.1
20260505193009 6 83 1.6 3.2 0.00 0.00 0.00 74 1007.9
20260505191506 6 82 1.6 4.8 0.00 0.00 0.00 71 1007.8
20260505190005 6 83 1.6 4.8 0.00 0.00 0.00 70 1007.6
20260505184502 6 83 0.0 9.7 0.00 0.00 0.00 70 1007.5
20260505183108 7 83 4.8 8.0 0.00 0.00 0.00 68 1007.3
20260505181610 7 71 4.8 9.7 0.00 0.00 0.00 65 1007.1
20260505180056 7 50 6.4 9.7 0.00 0.00 0.00 59 1007.0
20260505174556 8 350 6.4 12.9 0.00 0.00 0.00 46 1006.9
20260505173053 8 32 9.7 19.3 0.00 0.00 0.00 44 1006.7
20260505171552 8 314 14.5 22.5 0.00 0.00 0.00 40 1006.6
20260505170050 8 243 12.9 20.9 0.00 0.00 0.00 40 1006.4
20260505164558 9 275 14.5 24.1 0.00 0.00 0.00 38 1006.3
20260505163048 9 307 9.7 17.7 0.00 0.00 0.00 41 1006.3
20260505161556 9 269 11.3 22.5 0.00 0.00 0.00 38 1006.3
20260505153050 9 259 11.3 22.5 0.00 0.00 0.00 38 1006.1
20260505151542 9 269 14.5 22.5 0.00 0.00 0.00 39 1006.1
20260505124535 10 268 19.3 33.8 0.00 0.00 0.00 37 1005.5
20260505123026 9 261 16.1 25.7 0.00 0.00 0.00 36 1005.5
20260505121523 10 263 17.7 29.0 0.00 0.00 0.00 34 1005.6
20260505120023 8 267 17.7 22.5 0.00 0.00 0.00 40 1005.4
20260505114517 9 265 22.5 32.2 0.00 0.00 0.00 39 1005.4
20260505113015 9 292 16.1 29.0 0.00 0.00 0.00 42 1005.3
20260505111511 9 306 17.7 32.2 0.00 0.00 0.00 42 1005.4
20260505101556 8 266 16.1 30.6 0.00 0.00 0.00 43 1005.1
20260505100055 9 237 16.1 29.0 0.00 0.00 0.00 47 1005.2
20260505094553 8 260 19.3 29.0 0.00 0.00 0.00 45 1005.1
20260505093057 8 271 16.1 29.0 0.00 0.00 0.00 50 1005.0
20260505091550 8 236 14.5 25.7 0.00 0.00 0.00 53 1004.9
20260505090049 8 242 19.3 32.2 0.00 0.00 0.00 56 1004.9
20260505084553 7 279 24.1 32.2 0.00 0.00 0.00 56 1004.9
20260505083051 7 254 16.1 27.4 0.00 0.00 0.00 61 1004.7
20260505081550 7 273 16.1 27.4 0.00 0.00 0.00 65 1004.6
20260505080044 7 255 16.1 29.0 0.00 0.00 0.00 66 1004.5
20260505074542 7 261 9.7 25.7 0.00 0.03 0.00 69 1004.4
20260505073041 6 248 9.7 27.4 0.00 0.03 0.00 71 1004.4
20260505071541 6 269 14.5 25.7 0.00 0.03 0.00 72 1004.2
20260505070044 6 265 14.5 24.1 0.00 0.03 0.00 75 1004.0
20260505064538 6 261 12.9 22.5 0.00 0.05 0.00 74 1003.9
20260505063038 6 254 14.5 24.1 0.00 0.05 0.00 73 1003.8
20260505061535 6 268 12.9 22.5 0.00 0.05 0.00 74 1003.7
20260505060037 6 268 17.7 25.7 0.00 0.05 0.00 74 1003.6
20260505054532 6 292 17.7 25.7 0.00 0.18 0.00 75 1003.5
20260505053049 6 258 11.3 19.3 0.00 0.18 0.00 76 1003.5
20260505051530 5 306 12.9 19.3 0.00 0.18 0.00 80 1003.4
20260505041521 5 320 11.3 19.3 0.00 0.33 0.00 83 1002.8
20260505040021 5 286 11.3 17.7 0.00 0.33 0.00 81 1002.5
20260505034521 6 279 16.1 25.7 0.00 0.33 0.00 80 1002.3
20260505033013 6 277 8.0 17.7 0.00 0.33 0.00 79 1002.2
20260505031512 6 283 11.3 20.9 0.00 0.33 0.00 77 1002.0
20260505030007 6 258 14.5 20.9 0.00 0.33 0.00 75 1001.8
20260505024503 7 281 11.3 33.8 0.00 0.33 0.00 72 1001.6
20260505023103 7 264 17.7 27.4 0.00 0.33 0.00 73 1001.5
20260505021558 7 252 9.7 17.7 0.00 0.33 0.00 71 1001.2
20260505020055 7 227 9.7 17.7 0.00 0.33 0.00 69 1001.1
20260505014551 7 225 9.7 24.1 0.00 0.33 0.00 67 1000.9